Location: Caltech
(34.1382°N, 118.1253°W)
Time: 03:19:45
(UTC-07:00)

PANSAT - Visible Passes

Search period start: 23 May 2015 00:00
Search period end: 02 June 2015 00:00
Orbit: 484 x 490 km, 28.5° (Epoch: 21 May)

Date Brightness Start Highest point End Pass type
(mag) Time Alt. Az. Time Alt. Az. Time Alt. Az.
23 May 8.6 21:18:44 10° WSW 21:22:05 29° S 21:22:40 27° S visible
24 May 8.8 20:51:22 10° WSW 20:54:42 28° S 20:56:44 18° SE visible
25 May 8.8 20:24:00 10° WSW 20:27:19 28° S 20:30:38 10° SE visible
26 May 9.9 21:37:54 10° SW 21:39:05 12° SSW 21:39:05 12° SSW visible
27 May 9.9 21:10:40 10° SW 21:12:02 11° SSW 21:13:08 10° S visible
28 May 10.0 20:43:26 10° SW 20:44:37 11° SSW 20:45:43 10° S visible
